EW2345 Weather Reports


Display with metric or nautical units.
time (UTC)temp
F
wind
direction
speed
MPH
gust
MPH
rain 1hr
in
rain 24hr
in
rain mn
in
humidity
%
barometer
mb
20260901131504 80 269 5.0 12.0 0.00 0.00 0.00 54 1018.6
20260901131003 80 336 3.0 10.0 0.00 0.00 0.00 54 1018.6
20260901130504 81 238 4.0 8.0 0.00 0.00 0.00 53 1018.6
20260901130004 81 243 3.0 9.0 0.00 0.00 0.00 52 1018.5
20260901125003 81 238 5.0 12.0 0.00 0.00 0.00 52 1018.6
20260901124505 80 230 6.0 8.0 0.00 0.00 0.00 52 1018.6
20260901124003 80 314 6.0 10.0 0.00 0.00 0.00 52 1018.7
20260901123005 81 245 6.0 12.0 0.00 0.00 0.00 49 1018.9
20260901122003 80 260 5.0 10.0 0.00 0.00 0.00 50 1019.1
20260901121504 79 270 3.0 10.0 0.00 0.00 0.00 51 1019.2
20260901121004 79 276 3.0 8.0 0.00 0.00 0.00 52 1019.3
20260901120504 79 325 5.0 8.0 0.00 0.00 0.00 52 1019.3
20260901120004 79 257 2.0 8.0 0.00 0.00 0.00 53 1019.2
20260901115503 79 273 5.0 8.0 0.00 0.00 0.00 54 1019.1
20260901115003 78 350 2.0 6.0 0.00 0.00 0.00 52 1019.2
20260901114504 79 258 2.0 9.0 0.00 0.00 0.00 52 1019.2
20260901114004 79 242 5.0 9.0 0.00 0.00 0.00 50 1019.2
20260901113504 79 239 4.0 7.0 0.00 0.00 0.00 49 1019.2
20260901113004 79 263 3.0 7.0 0.00 0.00 0.00 51 1019.2
20260901112504 78 215 2.0 7.0 0.00 0.00 0.00 52 1019.2
20260901112004 77 59 1.0 2.0 0.00 0.00 0.00 55 1019.2
20260901111004 76 59 0.0 1.0 0.00 0.00 0.00 57 1019.4
20260901110005 76 59 0.0 1.0 0.00 0.00 0.00 57 1019.7
20260901105504 76 58 0.0 3.0 0.00 0.00 0.00 57 1019.7
20260901105004 75 58 0.0 2.0 0.00 0.00 0.00 57 1019.8
20260901104504 75 58 0.0 2.0 0.00 0.00 0.00 59 1019.9
20260901104004 74 58 0.0 3.0 0.00 0.00 0.00 61 1019.8
20260901103503 74 58 1.0 3.0 0.00 0.00 0.00 64 1019.8
20260901102503 73 59 1.0 5.0 0.00 0.00 0.00 68 1019.9
20260901102003 72 65 1.0 2.0 0.00 0.00 0.00 67 1019.9
20260901101504 72 65 0.0 0.0 0.00 0.00 0.00 69 1019.9
20260901101004 71 65 0.0 2.0 0.00 0.00 0.00 70 1019.9
20260901100504 70 65 1.0 3.0 0.00 0.00 0.00 73 1019.9
20260901100005 70 65 0.0 2.0 0.00 0.00 0.00 74 1020.0
20260901095504 69 65 1.0 3.0 0.00 0.00 0.00 74 1020.0
20260901094504 68 67 0.0 0.0 0.00 0.00 0.00 76 1020.1
20260901094003 67 67 0.0 0.0 0.00 0.00 0.00 78 1020.1
20260901093504 67 67 0.0 0.0 0.00 0.00 0.00 77 1020.0
20260901093004 66 67 0.0 0.0 0.00 0.00 0.00 79 1020.0
20260901092504 66 67 0.0 0.0 0.00 0.00 0.00 79 1020.0
20260901092004 66 47 0.0 0.0 0.00 0.00 0.00 79 1020.1
20260901091503 66 47 0.0 0.0 0.00 0.00 0.00 80 1020.0
20260901090504 63 47 0.0 0.0 0.00 0.00 0.00 86 1020.0
20260901090004 62 47 0.0 0.0 0.00 0.00 0.00 86 1020.0
20260901085504 62 47 0.0 0.0 0.00 0.00 0.00 87 1020.0
20260901085003 62 47 0.0 0.0 0.00 0.00 0.00 88 1020.2
20260901084503 61 47 0.0 1.0 0.00 0.00 0.00 87 1020.3
20260901084003 61 47 0.0 0.0 0.00 0.00 0.00 88 1020.3
20260901083503 61 47 0.0 0.0 0.00 0.00 0.00 88 1020.3
20260901083004 61 44 0.0 0.0 0.00 0.00 0.00 89 1020.4
20260901082004 60 44 0.0 0.0 0.00 0.00 0.00 92 1020.4
20260901081503 59 44 0.0 0.0 0.00 0.00 0.00 92 1020.5
20260901081004 59 44 0.0 0.0 0.00 0.00 0.00 93 1020.5
20260901080504 58 44 0.0 0.0 0.00 0.00 0.00 93 1020.5
20260901080005 58 44 0.0 2.0 0.00 0.00 0.00 94 1020.4
20260901075503 57 44 0.0 3.0 0.00 0.00 0.00 97 1020.4
20260901075003 56 44 0.0 3.0 0.00 0.00 0.00 97 1020.4
20260901074504 56 44 2.0 3.0 0.00 0.00 0.00 97 1020.4
20260901074004 56 44 2.0 5.0 0.00 0.00 0.00 97 1020.4
20260901073503 56 43 0.0 3.0 0.00 0.00 0.00 97 1020.3
20260901073005 56 43 1.0 2.0 0.00 0.00 0.00 97 1020.2
20260901072503 55 43 0.0 2.0 0.00 0.00 0.00 97 1020.2
20260901071504 55 43 0.0 3.0 0.00 0.00 0.00 97 1020.1
20260901071004 55 43 1.0 5.0 0.00 0.00 0.00 97 1020.1
20260901070503 55 43 0.0 0.0 0.00 0.00 0.00 97 1020.0
20260901070004 55 43 0.0 0.0 0.00 0.00 0.00 97 1020.1
20260901065504 55 43 0.0 0.0 0.00 0.00 0.00 97 1020.0
20260901065003 55 43 0.0 0.0 0.00 0.00 0.00 97 1019.9
20260901064503 55 43 0.0 0.0 0.00 0.00 0.00 97 1019.9
20260901064004 55 43 0.0 0.0 0.00 0.00 0.00 97 1019.9
20260901063504 55 43 0.0 0.0 0.00 0.00 0.00 97 1019.9
20260901063005 54 43 0.0 0.0 0.00 0.00 0.00 96 1019.8
20260901062504 54 43 0.0 0.0 0.00 0.01 0.00 96 1019.9
20260901062004 54 43 0.0 0.0 0.00 0.01 0.00 96 1019.9
20260901060504 55 43 0.0 0.0 0.00 0.01 0.00 96 1019.8
20260901060004 55 43 0.0 0.0 0.00 0.01 0.00 96 1019.8
20260901055504 55 43 0.0 1.0 0.00 0.01 0.00 96 1019.8
20260901055004 55 43 1.0 5.0 0.00 0.01 0.00 96 1019.9
20260901054504 55 44 1.0 3.0 0.00 0.01 0.00 96 1019.8
20260901054003 55 44 0.0 3.0 0.00 0.01 0.00 95 1019.8
20260901053504 55 43 0.0 5.0 0.00 0.01 0.00 95 1019.7
20260901053005 55 43 0.0 0.0 0.00 0.01 0.00 95 1019.7
20260901052004 55 43 0.0 3.0 0.00 0.01 0.00 95 1019.6
20260901051503 55 43 1.0 5.0 0.00 0.01 0.00 95 1019.6
20260901051003 55 43 0.0 3.0 0.00 0.01 0.00 95 1019.6
20260901050504 55 43 0.0 0.0 0.00 0.01 0.00 95 1019.6
20260901050005 55 43 0.0 0.0 0.00 0.01 0.00 95 1019.6
20260901045503 55 43 0.0 1.0 0.00 0.01 0.00 94 1019.6
20260901045003 55 43 0.0 2.0 0.00 0.01 0.00 94 1019.6
20260901044506 55 43 0.0 0.0 0.00 0.01 0.00 94 1019.6
20260901044004 55 43 1.0 2.0 0.00 0.01 0.00 94 1019.6
20260901043504 55 43 1.0 3.0 0.00 0.01 0.00 93 1019.6
20260901043004 55 43 0.0 0.0 0.00 0.01 0.00 93 1019.5
20260901042503 55 43 0.0 0.0 0.00 0.01 0.00 93 1019.5
20260901041504 55 42 1.0 2.0 0.00 0.01 0.00 93 1019.5
20260901041004 56 42 0.0 0.0 0.00 0.01 0.00 92 1019.5
20260901040504 56 42 0.0 0.0 0.00 0.01 0.00 92 1019.6
20260901035004 56 42 0.0 0.0 0.00 0.01 0.00 93 1019.5
20260901034003 56 42 0.0 0.0 0.00 0.01 0.00 93 1019.5
20260901033503 56 42 0.0 0.0 0.00 0.01 0.00 93 1019.6
20260901032503 57 42 0.0 0.0 0.00 0.01 0.00 93 1019.5
20260901032003 57 42 0.0 0.0 0.00 0.01 0.00 93 1019.6
20260901031003 57 42 0.0 0.0 0.00 0.01 0.00 93 1019.7
20260901030503 57 42 0.0 2.0 0.00 0.01 0.00 93 1019.7
20260901030005 57 42 1.0 3.0 0.00 0.01 0.00 93 1019.8
20260901025503 57 42 0.0 0.0 0.00 0.01 0.00 93 1019.8
20260901024504 57 42 0.0 0.0 0.00 0.01 0.00 92 1019.8
20260901024004 57 42 0.0 0.0 0.00 0.01 0.00 92 1019.8
20260901023504 57 42 0.0 1.0 0.00 0.01 0.00 92 1019.9
20260901023005 57 42 0.0 1.0 0.00 0.01 0.00 92 1020.0
20260901022503 58 43 0.0 2.0 0.00 0.01 0.00 92 1020.0
20260901021503 58 40 0.0 0.0 0.00 0.01 0.00 92 1020.1
20260901021003 58 40 0.0 2.0 0.00 0.01 0.00 92 1020.1
20260901020504 58 40 0.0 0.0 0.00 0.01 0.00 92 1020.1
20260901020004 58 40 0.0 3.0 0.00 0.01 0.00 92 1020.1
20260901015504 58 40 4.0 5.0 0.00 0.01 0.00 91 1020.1
20260901015004 58 41 0.0 0.0 0.00 0.01 0.00 91 1020.1
20260901014504 58 41 0.0 0.0 0.00 0.01 0.00 91 1020.1
20260901014004 58 41 0.0 0.0 0.00 0.01 0.00 91 1020.1
20260901013503 58 41 0.0 0.0 0.00 0.01 0.00 91 1020.2
20260901013004 58 41 0.0 0.0 0.00 0.01 0.00 91 1020.3
20260901012504 59 41 0.0 0.0 0.00 0.01 0.00 91 1020.4
20260901011503 59 41 0.0 1.0 0.00 0.01 0.00 90 1020.4
20260901011004 59 41 0.0 0.0 0.00 0.01 0.00 90 1020.4
20260901010505 59 41 0.0 0.0 0.00 0.01 0.00 89 1020.4
20260901010004 59 41 0.0 0.0 0.00 0.01 0.00 89 1020.3
20260901005504 59 41 0.0 2.0 0.00 0.01 0.00 88 1020.3
20260901005004 59 41 0.0 0.0 0.00 0.01 0.00 88 1020.3
20260901004004 60 41 0.0 0.0 0.00 0.01 0.00 88 1020.3
20260901003503 60 41 0.0 5.0 0.00 0.01 0.00 88 1020.2
20260901003005 60 41 0.0 5.0 0.00 0.01 0.00 89 1020.3
20260901002504 60 41 0.0 0.0 0.00 0.01 0.00 88 1020.2
20260901002004 60 41 0.0 0.0 0.00 0.01 0.00 88 1020.3
20260901001504 60 41 0.0 0.0 0.00 0.01 0.00 87 1020.4
20260901000004 61 41 0.0 0.0 0.00 0.01 0.00 87 1020.7
20260831235504 61 41 0.0 0.0 0.00 0.01 0.00 87 1020.6
20260831235004 61 41 0.0 2.0 0.00 0.01 0.00 86 1020.7
20260831234503 61 41 1.0 3.0 0.00 0.01 0.00 86 1020.7
20260831234004 61 41 1.0 8.0 0.00 0.01 0.00 85 1020.7
20260831233504 61 42 0.0 2.0 0.00 0.01 0.00 85 1020.9
20260831233005 61 42 0.0 5.0 0.00 0.01 0.00 84 1021.0
20260831232503 61 42 2.0 5.0 0.00 0.01 0.00 84 1021.0
20260831232004 62 42 3.0 6.0 0.00 0.01 0.00 84 1021.0
20260831231503 62 42 2.0 6.0 0.00 0.01 0.00 84 1021.0
20260831231004 62 41 1.0 3.0 0.00 0.01 0.00 84 1020.9
20260831230504 62 41 1.0 5.0 0.00 0.01 0.00 84 1021.0
20260831230004 62 41 0.0 3.0 0.00 0.01 0.00 84 1021.0
20260831225504 62 40 1.0 3.0 0.00 0.01 0.00 84 1021.1
20260831224004 62 57 0.0 2.0 0.00 0.01 0.00 82 1021.2
20260831223504 62 39 1.0 3.0 0.00 0.01 0.00 82 1021.2
20260831222504 62 38 1.0 5.0 0.00 0.01 0.00 81 1021.2
20260831222003 62 38 4.0 7.0 0.00 0.01 0.00 81 1021.1
20260831220503 62 5 3.0 6.0 0.00 0.01 0.00 79 1021.0
20260831220005 63 276 0.0 0.0 0.00 0.01 0.00 79 1020.9
20260831215503 63 276 0.0 0.0 0.00 0.01 0.01 79 1020.9
20260831215004 63 276 0.0 1.0 0.00 0.01 0.01 79 1021.0
20260831214504 64 276 0.0 0.0 0.00 0.01 0.01 79 1021.0
20260831214004 64 276 0.0 0.0 0.00 0.01 0.01 79 1021.0
20260831213504 64 276 0.0 0.0 0.00 0.01 0.01 79 1020.9
20260831213004 64 276 0.0 0.0 0.00 0.01 0.01 79 1020.9
20260831212504 65 276 0.0 0.0 0.00 0.01 0.01 78 1020.8
20260831212004 65 276 0.0 0.0 0.00 0.01 0.01 79 1020.8
20260831211504 65 276 0.0 0.0 0.00 0.01 0.01 78 1020.8
20260831211004 66 276 0.0 0.0 0.00 0.01 0.01 78 1020.9
20260831210504 66 276 0.0 0.0 0.00 0.01 0.01 77 1020.8
20260831205504 67 276 0.0 0.0 0.00 0.01 0.01 76 1020.7
20260831205004 67 276 0.0 0.0 0.00 0.01 0.01 76 1020.7
20260831204504 68 276 0.0 0.0 0.00 0.01 0.01 75 1020.7
20260831204004 68 276 0.0 0.0 0.00 0.01 0.01 74 1020.7
20260831203503 68 276 0.0 0.0 0.00 0.01 0.01 74 1020.6
20260831203005 68 276 0.0 0.0 0.00 0.01 0.01 74 1020.5
20260831202503 69 276 0.0 0.0 0.00 0.01 0.01 74 1020.4
20260831201503 69 276 0.0 2.0 0.00 0.01 0.01 74 1020.3
20260831201004 69 276 1.0 2.0 0.00 0.01 0.01 73 1020.2
20260831200503 70 276 0.0 2.0 0.00 0.01 0.01 73 1020.2
20260831200005 70 276 2.0 5.0 0.00 0.01 0.01 72 1020.2
20260831195503 70 275 0.0 5.0 0.00 0.01 0.01 72 1020.2
20260831195004 70 275 1.0 5.0 0.00 0.01 0.01 71 1020.2
20260831194504 70 203 0.0 0.0 0.00 0.01 0.01 68 1020.3
20260831194003 71 203 0.0 0.0 0.00 0.01 0.01 65 1020.3
20260831193005 71 203 0.0 0.0 0.00 0.01 0.01 65 1020.1
20260831192503 72 203 1.0 5.0 0.00 0.01 0.01 68 1020.0
20260831192004 72 193 0.0 3.0 0.00 0.01 0.01 67 1019.9
20260831191505 72 193 0.0 6.0 0.00 0.01 0.01 68 1019.8
20260831191004 72 223 1.0 7.0 0.00 0.01 0.01 67 1019.8
20260831190504 72 263 2.0 9.0 0.00 0.01 0.01 64 1019.7
20260831190005 73 356 5.0 9.0 0.00 0.01 0.01 64 1019.7
20260831185003 73 228 0.0 0.0 0.00 0.01 0.01 66 1019.6
20260831184004 74 228 0.0 3.0 0.00 0.01 0.01 67 1019.6
20260831183504 74 228 3.0 7.0 0.00 0.01 0.01 66 1019.5
20260831183004 74 227 1.0 5.0 0.00 0.01 0.01 65 1019.4
20260831182504 75 227 2.0 6.0 0.00 0.01 0.01 65 1019.4
20260831182004 75 227 3.0 8.0 0.00 0.01 0.01 64 1019.4
20260831181504 75 227 5.0 9.0 0.00 0.01 0.01 64 1019.4
20260831180504 75 229 3.0 6.0 0.00 0.01 0.01 62 1019.3
20260831180005 76 229 5.0 9.0 0.00 0.01 0.01 62 1019.3
20260831175003 76 245 5.0 9.0 0.00 0.01 0.01 60 1019.4
20260831174504 76 242 6.0 12.0 0.00 0.01 0.01 60 1019.3
20260831174004 76 245 6.0 9.0 0.00 0.01 0.01 60 1019.3
20260831173504 77 248 4.0 7.0 0.00 0.01 0.01 59 1019.3
20260831172504 77 235 5.0 8.0 0.00 0.01 0.01 58 1019.2
20260831172004 77 246 5.0 9.0 0.00 0.01 0.01 58 1019.2
20260831171504 77 238 3.0 7.0 0.00 0.01 0.01 58 1019.2
20260831171004 77 243 7.0 10.0 0.00 0.01 0.01 58 1019.3
20260831170005 77 247 5.0 9.0 0.00 0.01 0.01 58 1019.4
20260831165003 77 254 5.0 12.0 0.00 0.01 0.01 57 1019.4
20260831164004 78 240 6.0 12.0 0.00 0.01 0.01 56 1019.4
20260831163504 78 240 7.0 12.0 0.00 0.01 0.01 57 1019.3
20260831163005 78 242 7.0 14.0 0.00 0.01 0.01 57 1019.3
20260831162504 78 237 6.0 14.0 0.00 0.01 0.01 57 1019.2
20260831162004 78 255 6.0 10.0 0.00 0.01 0.01 57 1019.2
20260831161504 78 263 6.0 12.0 0.00 0.01 0.01 56 1019.4
20260831160503 79 252 7.0 10.0 0.00 0.01 0.01 55 1019.4
20260831160005 79 261 6.0 13.0 0.00 0.01 0.01 54 1019.5
20260831155503 79 235 5.0 13.0 0.00 0.01 0.01 54 1019.5
20260831155004 79 244 5.0 8.0 0.00 0.01 0.01 54 1019.5
20260831154003 79 238 5.0 10.0 0.00 0.01 0.01 51 1019.5
20260831153504 79 250 6.0 12.0 0.00 0.01 0.01 53 1019.6
20260831152504 79 271 5.0 9.0 0.00 0.01 0.01 54 1019.7
20260831152003 80 252 5.0 10.0 0.00 0.01 0.01 51 1019.7
20260831151504 79 249 3.0 8.0 0.00 0.01 0.01 53 1019.8
20260831151003 79 230 2.0 8.0 0.00 0.01 0.01 54 1019.8
20260831150504 79 242 4.0 10.0 0.00 0.01 0.01 52 1019.9
20260831145504 79 298 3.0 8.0 0.00 0.01 0.01 51 1019.9
20260831145003 79 271 2.0 6.0 0.00 0.01 0.01 51 1020.0
20260831144504 79 308 4.0 8.0 0.00 0.01 0.01 50 1020.1
20260831143504 79 313 2.0 8.0 0.00 0.01 0.01 48 1020.2
20260831143005 80 300 4.0 9.0 0.00 0.01 0.01 46 1020.2
20260831142503 79 245 3.0 9.0 0.00 0.01 0.01 47 1020.2
20260831142004 79 5 1.0 5.0 0.00 0.01 0.01 45 1020.4
20260831141503 79 5 0.0 8.0 0.00 0.01 0.01 46 1020.4
20260831141003 78 5 5.0 8.0 0.00 0.01 0.01 43 1020.4
20260831140505 78 5 2.0 8.0 0.00 0.01 0.01 44 1020.4
20260831140005 77 19 1.0 8.0 0.00 0.01 0.01 46 1020.4
20260831135504 78 30 1.0 5.0 0.00 0.01 0.01 51 1020.6
20260831135003 78 30 2.0 8.0 0.00 0.01 0.01 50 1020.6
20260831134504 77 355 4.0 8.0 0.00 0.01 0.01 48 1020.6
20260831133503 77 326 3.0 7.0 0.00 0.01 0.01 51 1020.5
20260831133004 77 51 0.0 2.0 0.00 0.01 0.01 51 1020.6
20260831132504 77 51 3.0 7.0 0.00 0.01 0.01 51 1020.7
20260831132004 76 69 2.0 6.0 0.00 0.01 0.01 53 1020.7